KE8BSM Weather Reports


Display with metric or nautical units.
time (UTC)temp
F
wind
direction
speed
MPH
gust
MPH
rain 1hr
in
rain 24hr
in
rain mn
in
humidity
%
barometer
mb
20260509012815 54 0.0 0.0 0.00 0.00 0.00 41 1006.2
20260509011815 55 0.0 0.0 0.00 0.00 0.00 42 1006.1
20260509010816 56 0.0 0.0 0.00 0.00 0.00 37 1006.1
20260509005816 56 0.0 0.0 0.00 0.00 0.00 38 1006.1
20260509004816 57 0.0 0.0 0.00 0.00 0.00 39 1006.2
20260509003816 58 0.0 0.0 0.00 0.00 0.00 36 1006.2
20260509002816 59 0.0 0.0 0.00 0.00 0.00 35 1006.2
20260509001816 60 0.0 0.0 0.00 0.00 0.00 33 1006.2
20260509000816 60 0.0 0.0 0.00 0.00 0.00 29 1006.3
20260508235837 60 20 1.0 2.0 0.00 0.00 0.00 30 1006.5
20260508234837 61 240 0.0 1.0 0.00 0.00 0.00 29 1006.6
20260508233815 61 227 0.0 2.0 0.00 0.00 0.00 27 1006.7
20260508232816 62 88 1.0 2.0 0.00 0.00 0.00 30 1006.8
20260508231816 62 241 0.0 2.0 0.00 0.00 0.00 27 1006.9
20260508230816 62 210 1.0 2.0 0.00 0.00 0.00 31 1007.0
20260508225816 63 32 3.0 4.0 0.00 0.00 0.00 28 1006.9
20260508224815 63 198 2.0 4.0 0.00 0.00 0.00 31 1006.9
20260508223815 63 14 4.0 7.0 0.00 0.00 0.00 32 1006.9
20260508222835 63 296 2.0 6.0 0.00 0.00 0.00 29 1007.0
20260508221815 63 219 2.0 3.0 0.00 0.00 0.00 28 1007.0
20260508220815 63 295 2.0 4.0 0.00 0.00 0.00 30 1007.1
20260508215815 63 198 3.0 4.0 0.00 0.00 0.00 28 1007.0
20260508214816 62 267 2.0 3.0 0.00 0.00 0.00 30 1007.0
20260508213856 63 44 3.0 7.0 0.00 0.00 0.00 29 1007.0
20260508212816 63 345 4.0 5.0 0.00 0.00 0.00 30 1007.1
20260508211816 63 27 2.0 4.0 0.00 0.00 0.00 30 1007.2
20260508210816 62 197 2.0 4.0 0.00 0.00 0.00 29 1007.2
20260508205817 62 242 2.0 3.0 0.00 0.00 0.00 29 1007.2
20260508204817 62 19 2.0 4.0 0.00 0.00 0.00 30 1007.4
20260508203817 62 208 3.0 6.0 0.00 0.00 0.00 29 1007.4
20260508202817 61 105 2.0 5.0 0.00 0.00 0.00 30 1007.6
20260508201817 61 11 3.0 5.0 0.00 0.00 0.00 30 1007.7
20260508200818 61 165 3.0 5.0 0.00 0.00 0.00 32 1007.8
20260508195837 61 223 2.0 5.0 0.00 0.00 0.00 30 1008.0
20260508194815 61 269 2.0 4.0 0.00 0.00 0.00 31 1008.1
20260508193815 61 222 3.0 3.0 0.00 0.00 0.00 31 1008.1
20260508192815 60 127 4.0 7.0 0.00 0.00 0.00 33 1008.3
20260508191816 60 4 2.0 4.0 0.00 0.00 0.00 31 1008.4
20260508190816 60 358 3.0 8.0 0.00 0.00 0.00 32 1008.4
20260508185816 60 232 2.0 3.0 0.00 0.00 0.00 31 1008.5
20260508184816 60 196 2.0 3.0 0.00 0.00 0.00 29 1008.5
20260508183816 61 27 4.0 9.0 0.00 0.00 0.00 29 1008.6
20260508182816 60 225 3.0 4.0 0.00 0.00 0.00 29 1008.7
20260508181816 60 25 1.0 3.0 0.00 0.00 0.00 28 1008.7
20260508180816 60 285 1.0 3.0 0.00 0.00 0.00 29 1008.8
20260508175817 60 3 2.0 4.0 0.00 0.00 0.00 29 1008.9
20260508174837 59 98 2.0 4.0 0.00 0.00 0.00 30 1009.0
20260508173817 59 19 4.0 6.0 0.00 0.00 0.00 31 1009.2
20260508172857 59 197 5.0 7.0 0.00 0.00 0.00 30 1009.4
20260508171838 59 208 2.0 6.0 0.00 0.00 0.00 32 1009.5
20260508170817 59 218 4.0 7.0 0.00 0.00 0.00 31 1009.6
20260508165817 59 30 3.0 4.0 0.00 0.00 0.00 33 1009.8
20260508164818 58 284 2.0 4.0 0.00 0.00 0.00 33 1010.0
20260508163818 58 160 3.0 4.0 0.00 0.00 0.00 34 1010.2
20260508162815 57 339 4.0 6.0 0.00 0.00 0.00 40 1010.3
20260508161838 57 40 1.0 2.0 0.00 0.00 0.00 39 1010.3
20260508160858 57 0.0 0.0 0.00 0.00 0.00 38 1010.4
20260508155816 57 223 2.0 5.0 0.00 0.00 0.00 41 1010.5
20260508154816 56 238 4.0 6.0 0.00 0.00 0.00 41 1010.4
20260508153836 56 216 2.0 4.0 0.00 0.00 0.00 46 1010.5
20260508152816 56 319 0.0 2.0 0.00 0.00 0.00 44 1010.6
20260508151816 55 180 3.0 4.0 0.00 0.00 0.00 45 1010.7
20260508150816 55 239 2.0 4.0 0.00 0.00 0.00 52 1010.8
20260508145817 54 341 1.0 4.0 0.00 0.00 0.00 53 1010.9
20260508144817 54 300 4.0 5.0 0.00 0.00 0.00 49 1011.0
20260508143824 54 179 1.0 2.0 0.00 0.00 0.00 63 1011.0
20260508142825 53 211 3.0 4.0 0.00 0.00 0.00 61 1011.1
20260508141825 53 300 3.0 4.0 0.00 0.00 0.00 66 1011.1
20260508140825 52 219 2.0 4.0 0.00 0.00 0.00 69 1011.2
20260508135825 52 182 1.0 2.0 0.00 0.00 0.00 69 1011.3
20260508134845 51 225 1.0 1.0 0.00 0.00 0.00 70 1011.2
20260508133825 51 343 1.0 2.0 0.00 0.00 0.00 71 1011.3
20260508132825 50 261 1.0 2.0 0.00 0.00 0.00 75 1011.3
20260508131825 49 169 1.0 2.0 0.00 0.00 0.00 74 1011.4
20260508130826 48 255 2.0 2.0 0.00 0.00 0.00 75 1011.5
20260508125826 47 214 1.0 2.0 0.00 0.00 0.00 78 1011.5
20260508124826 46 167 2.0 2.0 0.00 0.00 0.00 77 1011.6
20260508123826 45 227 1.0 1.0 0.00 0.00 0.00 78 1011.7
20260508122826 44 173 0.0 0.0 0.00 0.00 0.00 80 1011.6
20260508121826 42 0.0 0.0 0.00 0.00 0.00 82 1011.5
20260508120827 41 0.0 0.0 0.00 0.00 0.00 85 1011.4
20260508115827 40 0.0 0.0 0.00 0.00 0.00 88 1011.3
20260508114827 39 0.0 0.0 0.00 0.00 0.00 90 1011.2
20260508113827 38 0.0 0.0 0.00 0.00 0.00 94 1011.1
20260508112827 37 0.0 0.0 0.00 0.00 0.00 92 1011.0
20260508111827 36 0.0 0.0 0.00 0.00 0.00 94 1011.0
20260508110828 36 0.0 0.0 0.00 0.00 0.00 95 1011.0
20260508105828 36 0.0 0.0 0.00 0.00 0.00 94 1011.0
20260508104828 36 0.0 0.0 0.00 0.00 0.00 93 1010.9
20260508103828 36 0.0 0.0 0.00 0.00 0.00 92 1010.8
20260508102848 37 0.0 0.0 0.00 0.00 0.00 94 1010.7
20260508101828 36 0.0 0.0 0.00 0.00 0.00 95 1010.7
20260508100829 37 0.0 0.0 0.00 0.00 0.00 94 1010.9
20260508095829 37 0.0 0.0 0.00 0.00 0.00 95 1010.9
20260508094815 37 0.0 0.0 0.00 0.00 0.00 93 1010.9
20260508093816 37 0.0 0.0 0.00 0.00 0.00 93 1010.9
20260508092816 38 0.0 0.0 0.00 0.00 0.00 94 1011.1
20260508091816 38 260 0.0 0.0 0.00 0.00 0.00 95 1011.1
20260508090816 38 267 1.0 1.0 0.00 0.00 0.00 92 1011.1
20260508085816 38 0.0 0.0 0.00 0.00 0.00 90 1011.1
20260508084817 38 294 0.0 0.0 0.00 0.00 0.00 91 1011.1
20260508083816 38 0.0 0.0 0.00 0.00 0.00 88 1011.1
20260508082817 38 0.0 0.0 0.00 0.00 0.00 87 1011.1
20260508081837 39 0.0 0.0 0.00 0.00 0.00 87 1011.1
20260508080817 39 322 1.0 2.0 0.00 0.00 0.00 90 1011.2
20260508075837 39 0.0 0.0 0.00 0.00 0.00 86 1011.2
20260508074817 39 0.0 0.0 0.00 0.00 0.00 86 1011.1
20260508073817 39 0.0 0.0 0.00 0.00 0.00 86 1011.1
20260508072838 40 0.0 0.0 0.00 0.00 0.00 83 1011.3
20260508071818 40 190 1.0 2.0 0.00 0.00 0.00 85 1011.4
20260508070818 40 0.0 0.0 0.00 0.00 0.00 86 1011.5
20260508065818 40 184 1.0 2.0 0.00 0.00 0.00 83 1011.6
20260508064815 40 0.0 0.0 0.00 0.00 0.00 83 1011.6
20260508063815 40 181 0.0 1.0 0.00 0.00 0.00 82 1011.6
20260508062836 40 0.0 0.0 0.00 0.00 0.00 83 1011.6
20260508061816 41 0.0 0.0 0.00 0.00 0.00 82 1011.7
20260508060836 41 0.0 0.0 0.00 0.00 0.00 81 1011.8
20260508055816 41 0.0 0.0 0.00 0.00 0.00 81 1011.8
20260508054816 41 0.0 0.0 0.00 0.00 0.00 81 1011.8
20260508053816 41 0.0 0.0 0.00 0.00 0.00 80 1011.8
20260508052816 41 31 0.0 1.0 0.00 0.00 0.00 81 1012.0
20260508051817 42 6 2.0 3.0 0.00 0.00 0.00 81 1012.1
20260508050837 42 326 1.0 2.0 0.00 0.00 0.00 83 1012.1
20260508045817 42 0.0 0.0 0.00 0.00 0.00 80 1012.0
20260508044837 42 342 0.0 1.0 0.00 0.00 0.00 86 1012.0
20260508043857 42 0.0 0.0 0.00 0.00 0.00 81 1011.9
20260508042818 43 323 1.0 2.0 0.00 0.00 0.00 83 1011.8
20260508041817 43 0.0 0.0 0.00 0.00 0.00 78 1011.7
20260508040818 43 354 0.0 2.0 0.00 0.00 0.00 79 1011.6
20260508035835 44 338 1.0 2.0 0.00 0.00 0.00 78 1011.5
20260508034818 44 0.0 0.0 0.00 0.00 0.00 76 1011.5
20260508033815 44 0.0 0.0 0.00 0.00 0.00 73 1011.4
20260508032815 44 0.0 0.0 0.00 0.00 0.00 73 1011.5
20260508031816 45 0.0 0.0 0.00 0.00 0.00 74 1011.6
20260508030815 46 0.0 0.0 0.00 0.00 0.00 74 1011.6
20260508025856 46 0.0 0.0 0.00 0.00 0.00 72 1011.6
20260508024816 46 0.0 0.0 0.00 0.00 0.00 70 1011.6
20260508023816 46 343 0.0 1.0 0.00 0.00 0.00 70 1011.5
20260508022816 46 0.0 0.0 0.00 0.00 0.00 69 1011.4
20260508021816 46 328 1.0 1.0 0.00 0.00 0.00 69 1011.3
20260508020817 47 332 0.0 1.0 0.00 0.00 0.00 70 1011.2
20260508015817 47 0.0 0.0 0.00 0.00 0.00 69 1011.1
20260508014837 47 0.0 0.0 0.00 0.00 0.00 66 1011.1
20260508013817 48 0.0 0.0 0.00 0.00 0.00 64 1010.9